| time (UTC) | temp F | wind direction | speed knots | gust knots | rain 1hr in | rain 24hr in | rain mn in | humidity % | barometer mb |
| 20260904201018 | 100 | 68 | 0.9 | 4.3 | 0.00 | 0.03 | 0.00 | 41 | 1013.4 |
| 20260904200518 | 100 | 84 | 0.9 | 3.5 | 0.00 | 0.03 | 0.00 | 43 | 1013.5 |
| 20260904200052 | 100 | 0 | 0.9 | 4.3 | 0.00 | 0.03 | 0.00 | 44 | 1013.5 |
| 20260904195525 | 100 | 38 | 0.9 | 4.3 | 0.00 | 0.03 | 0.00 | 43 | 1013.6 |
| 20260904195019 | 100 | 0 | 0.0 | 4.3 | 0.00 | 0.03 | 0.00 | 46 | 1013.6 |
| 20260904194548 | 100 | 61 | 1.7 | 4.3 | 0.00 | 0.03 | 0.00 | 43 | 1013.7 |
| 20260904194022 | 101 | 61 | 0.9 | 5.2 | 0.00 | 0.03 | 0.00 | 44 | 1013.8 |
| 20260904193522 | 101 | 0 | 0.9 | 5.2 | 0.00 | 0.03 | 0.00 | 44 | 1014.0 |
| 20260904193041 | 101 | 73 | 0.0 | 5.2 | 0.00 | 0.03 | 0.00 | 43 | 1014.1 |
| 20260904192524 | 100 | 188 | 0.9 | 5.2 | 0.00 | 0.03 | 0.00 | 44 | 1014.2 |
| 20260904192020 | 100 | 18 | 0.0 | 4.3 | 0.00 | 0.03 | 0.00 | 45 | 1014.3 |
| 20260904191538 | 99 | 77 | 0.0 | 4.3 | 0.00 | 0.03 | 0.00 | 53 | 1014.4 |
| 20260904191018 | 99 | 0 | 0.0 | 5.2 | 0.00 | 0.03 | 0.00 | 46 | 1014.5 |
| 20260904190518 | 99 | 38 | 0.9 | 5.2 | 0.00 | 0.03 | 0.00 | 44 | 1014.8 |
| 20260904190041 | 100 | 61 | 0.9 | 5.2 | 0.00 | 0.03 | 0.00 | 45 | 1014.7 |
| 20260904185517 | 99 | 0 | 0.0 | 2.6 | 0.00 | 0.03 | 0.00 | 47 | 1014.6 |
| 20260904185023 | 99 | 0 | 0.0 | 5.2 | 0.00 | 0.03 | 0.00 | 47 | 1014.8 |
| 20260904184604 | 99 | 0 | 0.9 | 7.0 | 0.00 | 0.03 | 0.00 | 47 | 1014.8 |
| 20260904184021 | 99 | 120 | 1.7 | 7.0 | 0.00 | 0.03 | 0.00 | 46 | 1014.9 |
| 20260904183519 | 99 | 82 | 1.7 | 6.1 | 0.00 | 0.03 | 0.00 | 46 | 1015.1 |
| 20260904183042 | 98 | 0 | 0.9 | 4.3 | 0.00 | 0.03 | 0.00 | 50 | 1015.1 |
| 20260904182522 | 98 | 137 | 0.0 | 4.3 | 0.00 | 0.03 | 0.00 | 47 | 1015.2 |
| 20260904182027 | 99 | 28 | 0.9 | 5.2 | 0.00 | 0.03 | 0.00 | 45 | 1015.1 |
| 20260904181541 | 98 | 25 | 0.0 | 7.8 | 0.00 | 0.03 | 0.00 | 49 | 1015.1 |
| 20260904181024 | 98 | 15 | 0.0 | 7.8 | 0.00 | 0.03 | 0.00 | 47 | 1015.2 |
| 20260904180523 | 98 | 143 | 0.9 | 5.2 | 0.00 | 0.03 | 0.00 | 51 | 1015.3 |
| 20260904180044 | 98 | 96 | 0.9 | 5.2 | 0.00 | 0.03 | 0.00 | 47 | 1015.5 |
| 20260904175518 | 99 | 71 | 1.7 | 5.2 | 0.00 | 0.03 | 0.00 | 46 | 1015.4 |
| 20260904175019 | 100 | 5 | 0.9 | 7.0 | 0.00 | 0.03 | 0.00 | 46 | 1015.5 |
| 20260904174610 | 99 | 42 | 0.9 | 7.0 | 0.00 | 0.03 | 0.00 | 49 | 1015.6 |
| 20260904174019 | 99 | 0 | 0.0 | 6.1 | 0.00 | 0.03 | 0.00 | 51 | 1015.5 |
| 20260904173518 | 98 | 85 | 0.9 | 6.1 | 0.00 | 0.03 | 0.00 | 49 | 1015.7 |
| 20260904173046 | 98 | 69 | 0.0 | 5.2 | 0.00 | 0.03 | 0.00 | 49 | 1015.8 |
| 20260904172527 | 98 | 0 | 0.9 | 5.2 | 0.00 | 0.03 | 0.00 | 50 | 1016.0 |
| 20260904172023 | 98 | 110 | 0.9 | 4.3 | 0.00 | 0.03 | 0.00 | 48 | 1016.0 |
| 20260904171539 | 98 | 75 | 0.9 | 4.3 | 0.00 | 0.03 | 0.00 | 50 | 1016.2 |
| 20260904171021 | 98 | 10 | 0.0 | 2.6 | 0.00 | 0.03 | 0.00 | 52 | 1016.2 |
| 20260904170522 | 98 | 0 | 0.0 | 3.5 | 0.00 | 0.03 | 0.00 | 53 | 1016.1 |
| 20260904170048 | 97 | 99 | 0.0 | 3.5 | 0.00 | 0.03 | 0.00 | 51 | 1016.3 |
| 20260904165519 | 97 | 0 | 0.9 | 3.5 | 0.00 | 0.03 | 0.00 | 54 | 1016.3 |
| 20260904165018 | 96 | 0 | 0.0 | 2.6 | 0.00 | 0.03 | 0.00 | 55 | 1016.3 |
| 20260904164541 | 96 | 0 | 0.9 | 3.5 | 0.00 | 0.03 | 0.00 | 52 | 1016.5 |
| 20260904164020 | 96 | 23 | 0.0 | 5.2 | 0.00 | 0.03 | 0.00 | 53 | 1016.7 |
| 20260904163520 | 96 | 360 | 0.9 | 5.2 | 0.00 | 0.03 | 0.00 | 52 | 1016.7 |
| 20260904163050 | 96 | 110 | 0.9 | 5.2 | 0.00 | 0.03 | 0.00 | 53 | 1016.8 |
| 20260904162517 | 96 | 0 | 0.0 | 3.5 | 0.00 | 0.03 | 0.00 | 53 | 1016.7 |
| 20260904162018 | 96 | 32 | 0.9 | 4.3 | 0.00 | 0.03 | 0.00 | 51 | 1016.9 |
| 20260904161536 | 96 | 51 | 0.9 | 4.3 | 0.00 | 0.03 | 0.00 | 50 | 1016.9 |
| 20260904161019 | 96 | 5 | 0.9 | 2.6 | 0.00 | 0.03 | 0.00 | 52 | 1016.8 |
| 20260904160519 | 96 | 0 | 0.0 | 4.3 | 0.00 | 0.03 | 0.00 | 55 | 1016.8 |
| 20260904160042 | 96 | 0 | 1.7 | 4.3 | 0.00 | 0.03 | 0.00 | 52 | 1017.0 |
| 20260904155518 | 95 | 0 | 0.0 | 2.6 | 0.00 | 0.03 | 0.00 | 54 | 1017.0 |
| 20260904155018 | 95 | 0 | 0.9 | 3.5 | 0.00 | 0.03 | 0.00 | 55 | 1017.0 |
| 20260904154541 | 95 | 0 | 0.0 | 3.5 | 0.00 | 0.03 | 0.00 | 55 | 1017.0 |
| 20260904154021 | 94 | 0 | 0.9 | 3.5 | 0.00 | 0.03 | 0.00 | 53 | 1016.8 |
| 20260904153520 | 94 | 0 | 0.0 | 0.9 | 0.00 | 0.03 | 0.00 | 56 | 1017.0 |
| 20260904153040 | 93 | 0 | 0.0 | 1.7 | 0.00 | 0.03 | 0.00 | 59 | 1017.0 |
| 20260904152520 | 92 | 0 | 0.0 | 1.7 | 0.00 | 0.03 | 0.00 | 59 | 1016.8 |
| 20260904152019 | 92 | 49 | 0.0 | 3.5 | 0.00 | 0.03 | 0.00 | 60 | 1016.8 |
| 20260904151542 | 91 | 0 | 0.0 | 3.5 | 0.00 | 0.03 | 0.00 | 62 | 1016.9 |
| 20260904151018 | 91 | 0 | 0.0 | 3.5 | 0.00 | 0.03 | 0.00 | 62 | 1016.8 |
| 20260904150519 | 90 | 0 | 0.9 | 3.5 | 0.00 | 0.03 | 0.00 | 62 | 1016.7 |
| 20260904150041 | 90 | 0 | 0.0 | 2.6 | 0.00 | 0.03 | 0.00 | 64 | 1016.6 |
| 20260904145519 | 90 | 0 | 0.0 | 2.6 | 0.00 | 0.03 | 0.00 | 65 | 1016.5 |
| 20260904145018 | 89 | 41 | 0.0 | 2.6 | 0.00 | 0.03 | 0.00 | 66 | 1016.7 |
| 20260904144543 | 89 | 0 | 0.0 | 2.6 | 0.00 | 0.03 | 0.00 | 66 | 1016.7 |
| 20260904144020 | 89 | 37 | 0.0 | 2.6 | 0.00 | 0.03 | 0.00 | 65 | 1016.6 |
| 20260904143520 | 88 | 0 | 0.0 | 2.6 | 0.00 | 0.03 | 0.00 | 67 | 1016.6 |
| 20260904143041 | 88 | 0 | 0.0 | 2.6 | 0.00 | 0.03 | 0.00 | 68 | 1016.6 |
| 20260904142524 | 88 | 360 | 0.0 | 0.9 | 0.00 | 0.03 | 0.00 | 69 | 1016.7 |
| 20260904142023 | 87 | 0 | 0.0 | 2.6 | 0.00 | 0.03 | 0.00 | 67 | 1016.7 |
| 20260904141543 | 88 | 0 | 0.0 | 2.6 | 0.00 | 0.03 | 0.00 | 69 | 1016.7 |
| 20260904141017 | 88 | 0 | 0.0 | 2.6 | 0.00 | 0.03 | 0.00 | 68 | 1016.8 |
| 20260904140517 | 88 | 0 | 0.0 | 0.9 | 0.00 | 0.03 | 0.00 | 70 | 1016.7 |
| 20260904140042 | 87 | 0 | 0.0 | 0.9 | 0.00 | 0.03 | 0.00 | 69 | 1016.6 |
| 20260904135518 | 87 | 0 | 0.0 | 1.7 | 0.00 | 0.03 | 0.00 | 70 | 1016.6 |
| 20260904135019 | 87 | 0 | 0.0 | 2.6 | 0.00 | 0.03 | 0.00 | 72 | 1016.6 |
| 20260904134542 | 87 | 0 | 0.0 | 2.6 | 0.00 | 0.03 | 0.00 | 70 | 1016.5 |
| 20260904134019 | 86 | 337 | 0.0 | 1.7 | 0.00 | 0.03 | 0.00 | 71 | 1016.5 |
| 20260904133521 | 85 | 334 | 0.0 | 1.7 | 0.00 | 0.03 | 0.00 | 72 | 1016.3 |
| 20260904133039 | 85 | 0 | 0.0 | 0.9 | 0.00 | 0.03 | 0.00 | 73 | 1016.2 |
| 20260904132520 | 83 | 0 | 0.0 | 1.7 | 0.00 | 0.03 | 0.00 | 74 | 1016.2 |
| 20260904132019 | 83 | 0 | 0.0 | 1.7 | 0.00 | 0.03 | 0.00 | 75 | 1016.2 |
| 20260904131538 | 82 | 0 | 0.0 | 1.7 | 0.00 | 0.03 | 0.00 | 75 | 1016.3 |
| 20260904131017 | 80 | 0 | 0.0 | 0.9 | 0.00 | 0.03 | 0.00 | 73 | 1016.1 |
| 20260904130517 | 80 | 0 | 0.0 | 0.9 | 0.00 | 0.03 | 0.00 | 67 | 1016.3 |
| 20260904130041 | 79 | 0 | 0.0 | 0.0 | 0.00 | 0.03 | 0.00 | 51 | 1016.2 |
| 20260904125519 | 78 | 0 | 0.0 | 0.0 | 0.00 | 0.03 | 0.00 | 44 | 1016.2 |
| 20260904125021 | 78 | 0 | 0.0 | 0.0 | 0.00 | 0.03 | 0.00 | 37 | 1016.2 |
| 20260904124542 | 77 | 0 | 0.0 | 0.0 | 0.00 | 0.03 | 0.00 | 31 | 1016.2 |
| 20260904124021 | 77 | 0 | 0.0 | 0.0 | 0.00 | 0.03 | 0.00 | 22 | 1016.1 |
| 20260904123521 | 77 | 0 | 0.0 | 0.0 | 0.00 | 0.03 | 0.00 | 18 | 1015.9 |
| 20260904123041 | 76 | 0 | 0.0 | 0.0 | 0.00 | 0.03 | 0.00 | 14 | 1016.0 |
| 20260904122520 | 76 | 0 | 0.0 | 0.0 | 0.00 | 0.03 | 0.00 | 13 | 1015.6 |
| 20260904122021 | 76 | 0 | 0.0 | 0.0 | 0.00 | 0.03 | 0.00 | 13 | 1015.7 |
| 20260904121540 | 76 | 0 | 0.0 | 0.0 | 0.00 | 0.03 | 0.00 | 13 | 1015.7 |
| 20260904121020 | 75 | 0 | 0.0 | 0.0 | 0.00 | 0.03 | 0.00 | 14 | 1015.7 |
| 20260904120517 | 75 | 0 | 0.0 | 0.0 | 0.00 | 0.03 | 0.00 | 16 | 1015.7 |
| 20260904120044 | 75 | 0 | 0.0 | 0.0 | 0.00 | 0.03 | 0.00 | 16 | 1015.6 |
| 20260904115517 | 75 | 0 | 0.0 | 0.0 | 0.00 | 0.03 | 0.00 | 16 | 1015.8 |
| 20260904115018 | 75 | 0 | 0.0 | 0.0 | 0.00 | 0.03 | 0.00 | 17 | 1015.6 |
| 20260904114537 | 75 | 0 | 0.0 | 0.0 | 0.00 | 0.03 | 0.00 | 18 | 1015.7 |
| 20260904114022 | 75 | 0 | 0.0 | 0.0 | 0.00 | 0.03 | 0.00 | 20 | 1015.6 |
| 20260904113521 | 75 | 0 | 0.0 | 0.0 | 0.00 | 0.03 | 0.00 | 22 | 1015.5 |
| 20260904113041 | 75 | 0 | 0.0 | 0.0 | 0.00 | 0.03 | 0.00 | 23 | 1015.5 |
| 20260904112518 | 75 | 0 | 0.0 | 0.0 | 0.00 | 0.03 | 0.00 | 24 | 1015.5 |
| 20260904112020 | 75 | 0 | 0.0 | 0.0 | 0.00 | 0.03 | 0.00 | 23 | 1015.6 |
| 20260904111542 | 75 | 0 | 0.0 | 0.0 | 0.00 | 0.03 | 0.00 | 24 | 1015.4 |
| 20260904111017 | 75 | 0 | 0.0 | 0.0 | 0.00 | 0.03 | 0.00 | 26 | 1015.4 |
| 20260904110520 | 76 | 0 | 0.0 | 0.0 | 0.00 | 0.03 | 0.00 | 27 | 1015.4 |
| 20260904110040 | 76 | 0 | 0.0 | 0.0 | 0.00 | 0.03 | 0.00 | 26 | 1015.5 |
| 20260904105517 | 76 | 0 | 0.0 | 0.0 | 0.00 | 0.03 | 0.00 | 28 | 1015.5 |
| 20260904105017 | 76 | 0 | 0.0 | 0.0 | 0.00 | 0.03 | 0.00 | 30 | 1015.3 |
| 20260904104539 | 76 | 0 | 0.0 | 0.0 | 0.00 | 0.03 | 0.00 | 32 | 1015.3 |
| 20260904104024 | 76 | 0 | 0.0 | 0.0 | 0.00 | 0.03 | 0.00 | 32 | 1015.1 |
| 20260904103522 | 76 | 0 | 0.0 | 0.0 | 0.00 | 0.03 | 0.00 | 32 | 1015.3 |
| 20260904103040 | 76 | 0 | 0.0 | 0.0 | 0.00 | 0.03 | 0.00 | 31 | 1015.3 |
| 20260904102520 | 76 | 0 | 0.0 | 0.0 | 0.00 | 0.03 | 0.00 | 31 | 1015.3 |
| 20260904102018 | 76 | 0 | 0.0 | 0.0 | 0.00 | 0.03 | 0.00 | 34 | 1015.2 |
| 20260904101541 | 76 | 0 | 0.0 | 0.0 | 0.00 | 0.03 | 0.00 | 34 | 1015.1 |
| 20260904101020 | 76 | 0 | 0.0 | 0.0 | 0.00 | 0.03 | 0.00 | 36 | 1015.1 |
| 20260904100522 | 76 | 0 | 0.0 | 0.0 | 0.00 | 0.03 | 0.00 | 38 | 1015.2 |
| 20260904100044 | 76 | 0 | 0.0 | 0.0 | 0.00 | 0.03 | 0.00 | 37 | 1015.1 |
| 20260904095523 | 76 | 0 | 0.0 | 0.0 | 0.00 | 0.03 | 0.00 | 37 | 1015.1 |
| 20260904095022 | 76 | 0 | 0.0 | 0.0 | 0.00 | 0.03 | 0.00 | 40 | 1015.1 |
| 20260904094536 | 76 | 0 | 0.0 | 0.0 | 0.00 | 0.03 | 0.00 | 38 | 1014.9 |
| 20260904094021 | 76 | 0 | 0.0 | 0.0 | 0.00 | 0.03 | 0.00 | 40 | 1014.9 |
| 20260904093519 | 77 | 0 | 0.0 | 0.0 | 0.00 | 0.03 | 0.00 | 41 | 1014.9 |
| 20260904093055 | 77 | 0 | 0.0 | 0.0 | 0.00 | 0.03 | 0.00 | 41 | 1014.8 |
| 20260904092519 | 77 | 0 | 0.0 | 0.0 | 0.00 | 0.03 | 0.00 | 43 | 1014.7 |
| 20260904092023 | 77 | 0 | 0.0 | 0.0 | 0.00 | 0.03 | 0.00 | 43 | 1014.7 |
| 20260904091540 | 77 | 0 | 0.0 | 0.0 | 0.00 | 0.03 | 0.00 | 44 | 1014.8 |
| 20260904091016 | 77 | 0 | 0.0 | 0.0 | 0.00 | 0.03 | 0.00 | 44 | 1014.6 |
| 20260904090521 | 77 | 0 | 0.0 | 0.0 | 0.00 | 0.03 | 0.00 | 44 | 1014.6 |
| 20260904090041 | 77 | 0 | 0.0 | 0.0 | 0.00 | 0.03 | 0.00 | 46 | 1014.6 |
| 20260904085538 | 77 | 0 | 0.0 | 0.0 | 0.00 | 0.03 | 0.00 | 46 | 1014.6 |
| 20260904085022 | 77 | 0 | 0.0 | 0.0 | 0.00 | 0.03 | 0.00 | 45 | 1014.5 |
| 20260904084542 | 77 | 0 | 0.0 | 0.0 | 0.00 | 0.03 | 0.00 | 47 | 1014.4 |
| 20260904084018 | 77 | 0 | 0.0 | 0.0 | 0.00 | 0.03 | 0.00 | 48 | 1014.4 |
| 20260904083520 | 77 | 0 | 0.0 | 0.0 | 0.00 | 0.03 | 0.00 | 49 | 1014.6 |
| 20260904083040 | 77 | 0 | 0.0 | 0.0 | 0.00 | 0.03 | 0.00 | 49 | 1014.5 |
| 20260904082520 | 77 | 0 | 0.0 | 0.0 | 0.00 | 0.03 | 0.00 | 49 | 1014.6 |
| 20260904082019 | 77 | 0 | 0.0 | 0.0 | 0.00 | 0.03 | 0.00 | 49 | 1014.5 |
| 20260904081540 | 77 | 0 | 0.0 | 0.0 | 0.00 | 0.03 | 0.00 | 49 | 1014.5 |
| 20260904081017 | 77 | 0 | 0.0 | 1.7 | 0.00 | 0.03 | 0.00 | 49 | 1014.5 |
| 20260904080521 | 77 | 0 | 0.0 | 1.7 | 0.00 | 0.03 | 0.00 | 48 | 1014.5 |
| 20260904080044 | 77 | 328 | 0.0 | 0.9 | 0.00 | 0.03 | 0.00 | 44 | 1014.5 |
| 20260904075518 | 77 | 0 | 0.0 | 0.9 | 0.00 | 0.03 | 0.00 | 44 | 1014.5 |
| 20260904075021 | 77 | 0 | 0.0 | 0.0 | 0.00 | 0.03 | 0.00 | 46 | 1014.6 |
| 20260904074541 | 77 | 0 | 0.0 | 0.0 | 0.00 | 0.03 | 0.00 | 46 | 1014.5 |
| 20260904074023 | 77 | 0 | 0.0 | 0.0 | 0.00 | 0.03 | 0.00 | 46 | 1014.5 |
| 20260904073520 | 77 | 0 | 0.0 | 0.0 | 0.00 | 0.03 | 0.00 | 46 | 1014.5 |
| 20260904073052 | 77 | 0 | 0.0 | 0.0 | 0.00 | 0.03 | 0.00 | 46 | 1014.6 |
| 20260904072519 | 78 | 0 | 0.0 | 0.0 | 0.00 | 0.03 | 0.00 | 47 | 1014.6 |
| 20260904072018 | 78 | 0 | 0.0 | 0.0 | 0.00 | 0.03 | 0.00 | 48 | 1014.6 |
| 20260904071540 | 78 | 0 | 0.0 | 0.0 | 0.00 | 0.03 | 0.00 | 48 | 1014.5 |
| 20260904071022 | 78 | 0 | 0.0 | 0.0 | 0.00 | 0.03 | 0.00 | 48 | 1014.5 |
| 20260904070520 | 78 | 0 | 0.0 | 0.0 | 0.00 | 0.03 | 0.00 | 48 | 1014.6 |
| 20260904070042 | 78 | 0 | 0.0 | 0.0 | 0.00 | 0.03 | 0.00 | 50 | 1014.6 |
| 20260904065519 | 78 | 0 | 0.0 | 0.0 | 0.00 | 0.03 | 0.00 | 48 | 1014.7 |
| 20260904065017 | 78 | 0 | 0.0 | 0.0 | 0.00 | 0.03 | 0.00 | 50 | 1014.7 |
| 20260904064541 | 78 | 0 | 0.0 | 0.0 | 0.00 | 0.03 | 0.00 | 50 | 1014.7 |
| 20260904064017 | 78 | 0 | 0.0 | 0.0 | 0.00 | 0.03 | 0.00 | 51 | 1014.8 |
| 20260904063520 | 78 | 0 | 0.0 | 0.0 | 0.00 | 0.03 | 0.00 | 52 | 1014.6 |
| 20260904063043 | 78 | 0 | 0.0 | 0.0 | 0.00 | 0.03 | 0.00 | 54 | 1014.8 |
| 20260904062522 | 78 | 0 | 0.0 | 0.0 | 0.00 | 0.03 | 0.00 | 52 | 1014.9 |
| 20260904062021 | 78 | 0 | 0.0 | 0.0 | 0.00 | 0.03 | 0.00 | 52 | 1015.0 |
| 20260904061537 | 78 | 0 | 0.0 | 0.0 | 0.00 | 0.03 | 0.00 | 53 | 1015.0 |
| 20260904061018 | 78 | 0 | 0.0 | 0.0 | 0.00 | 0.03 | 0.00 | 55 | 1015.0 |
| 20260904060518 | 78 | 0 | 0.0 | 0.0 | 0.00 | 0.03 | 0.00 | 58 | 1015.0 |
| 20260904060041 | 78 | 0 | 0.0 | 0.0 | 0.00 | 0.03 | 0.00 | 59 | 1014.9 |
| 20260904055521 | 78 | 0 | 0.0 | 0.0 | 0.00 | 0.03 | 0.00 | 60 | 1014.9 |
| 20260904055020 | 78 | 0 | 0.0 | 0.0 | 0.00 | 0.03 | 0.00 | 65 | 1015.0 |
| 20260904054540 | 78 | 0 | 0.0 | 0.0 | 0.00 | 0.03 | 0.00 | 65 | 1014.9 |
| 20260904054020 | 79 | 0 | 0.0 | 0.0 | 0.00 | 0.03 | 0.00 | 64 | 1014.9 |
| 20260904053517 | 79 | 0 | 0.0 | 0.0 | 0.00 | 0.03 | 0.00 | 63 | 1014.9 |
| 20260904053036 | 79 | 0 | 0.0 | 0.0 | 0.00 | 0.03 | 0.00 | 63 | 1015.0 |
| 20260904052520 | 79 | 0 | 0.0 | 0.0 | 0.00 | 0.03 | 0.00 | 66 | 1015.0 |
| 20260904052024 | 79 | 0 | 0.0 | 0.0 | 0.00 | 0.03 | 0.00 | 64 | 1014.9 |
| 20260904051542 | 79 | 0 | 0.0 | 0.0 | 0.00 | 0.03 | 0.00 | 62 | 1014.9 |
| 20260904051020 | 79 | 0 | 0.0 | 0.0 | 0.00 | 0.03 | 0.00 | 61 | 1014.9 |
| 20260904050519 | 79 | 0 | 0.0 | 0.0 | 0.00 | 0.03 | 0.00 | 61 | 1015.0 |
| 20260904050041 | 79 | 0 | 0.0 | 0.0 | 0.00 | 0.03 | 0.00 | 63 | 1014.8 |
| 20260904045517 | 79 | 0 | 0.0 | 0.0 | 0.00 | 0.03 | 0.03 | 63 | 1014.9 |
| 20260904045020 | 79 | 0 | 0.0 | 0.0 | 0.00 | 0.03 | 0.03 | 62 | 1014.7 |
| 20260904044548 | 79 | 0 | 0.0 | 0.0 | 0.00 | 0.03 | 0.03 | 62 | 1014.7 |
| 20260904044017 | 80 | 0 | 0.0 | 0.0 | 0.00 | 0.03 | 0.03 | 62 | 1014.9 |
| 20260904043519 | 80 | 0 | 0.0 | 0.0 | 0.00 | 0.03 | 0.03 | 60 | 1014.8 |
| 20260904043042 | 80 | 0 | 0.0 | 0.0 | 0.00 | 0.03 | 0.03 | 59 | 1015.0 |
| 20260904042520 | 80 | 0 | 0.0 | 0.0 | 0.00 | 0.03 | 0.03 | 61 | 1015.0 |
| 20260904042018 | 80 | 0 | 0.0 | 0.0 | 0.00 | 0.03 | 0.03 | 62 | 1015.0 |
| 20260904041552 | 80 | 0 | 0.0 | 0.0 | 0.00 | 0.03 | 0.03 | 64 | 1015.0 |
| 20260904041020 | 80 | 0 | 0.0 | 0.0 | 0.00 | 0.03 | 0.03 | 62 | 1014.9 |
| 20260904040520 | 80 | 0 | 0.0 | 0.0 | 0.00 | 0.03 | 0.03 | 63 | 1014.8 |
| 20260904040041 | 80 | 0 | 0.0 | 0.0 | 0.00 | 0.03 | 0.03 | 65 | 1014.8 |
| 20260904035520 | 80 | 0 | 0.0 | 0.0 | 0.00 | 0.03 | 0.03 | 65 | 1014.8 |
| 20260904035020 | 80 | 0 | 0.0 | 0.0 | 0.00 | 0.03 | 0.03 | 66 | 1015.0 |
| 20260904034541 | 81 | 0 | 0.0 | 0.0 | 0.00 | 0.03 | 0.03 | 66 | 1015.0 |
| 20260904034021 | 81 | 0 | 0.0 | 0.0 | 0.00 | 0.03 | 0.03 | 67 | 1015.0 |
| 20260904033522 | 81 | 0 | 0.0 | 0.0 | 0.00 | 0.03 | 0.03 | 69 | 1015.2 |
| 20260904033055 | 81 | 0 | 0.0 | 0.0 | 0.00 | 0.03 | 0.03 | 68 | 1015.2 |
| 20260904032520 | 81 | 0 | 0.0 | 0.0 | 0.00 | 0.03 | 0.03 | 69 | 1015.1 |
| 20260904032020 | 81 | 0 | 0.0 | 0.0 | 0.00 | 0.03 | 0.03 | 67 | 1015.2 |
| 20260904031540 | 81 | 0 | 0.0 | 0.0 | 0.00 | 0.03 | 0.03 | 68 | 1015.3 |
| 20260904031020 | 82 | 0 | 0.0 | 0.0 | 0.00 | 0.03 | 0.03 | 69 | 1015.2 |
| 20260904030525 | 82 | 0 | 0.0 | 0.0 | 0.00 | 0.03 | 0.03 | 70 | 1015.5 |
| 20260904030038 | 82 | 0 | 0.0 | 0.0 | 0.00 | 0.03 | 0.03 | 71 | 1015.4 |
| 20260904025523 | 82 | 0 | 0.0 | 0.0 | 0.00 | 0.03 | 0.03 | 72 | 1015.5 |
| 20260904025021 | 82 | 0 | 0.0 | 0.0 | 0.00 | 0.03 | 0.03 | 73 | 1015.5 |
| 20260904024544 | 82 | 0 | 0.0 | 0.0 | 0.00 | 0.03 | 0.03 | 74 | 1015.5 |
| 20260904024018 | 82 | 0 | 0.0 | 0.0 | 0.00 | 0.03 | 0.03 | 74 | 1015.3 |
| 20260904023524 | 82 | 0 | 0.0 | 0.0 | 0.00 | 0.03 | 0.03 | 74 | 1015.5 |
| 20260904023040 | 82 | 0 | 0.0 | 0.0 | 0.00 | 0.03 | 0.03 | 74 | 1015.4 |
| 20260904022520 | 83 | 0 | 0.0 | 0.9 | 0.00 | 0.03 | 0.03 | 73 | 1015.3 |
| 20260904022020 | 83 | 0 | 0.0 | 1.7 | 0.00 | 0.03 | 0.03 | 74 | 1015.3 |
| 20260904021540 | 83 | 0 | 0.0 | 1.7 | 0.00 | 0.03 | 0.03 | 74 | 1015.2 |
| 20260904021027 | 82 | 0 | 0.0 | 0.9 | 0.00 | 0.03 | 0.03 | 74 | 1015.2 |
| 20260904020524 | 82 | 0 | 0.0 | 0.0 | 0.00 | 0.03 | 0.03 | 74 | 1015.1 |
| 20260904020053 | 83 | 0 | 0.0 | 0.0 | 0.00 | 0.03 | 0.03 | 74 | 1015.2 |
| 20260904015521 | 83 | 0 | 0.0 | 0.0 | 0.00 | 0.03 | 0.03 | 74 | 1015.0 |
| 20260904015021 | 83 | 0 | 0.0 | 0.0 | 0.00 | 0.03 | 0.03 | 74 | 1015.1 |
| 20260904014613 | 83 | 0 | 0.0 | 0.0 | 0.00 | 0.03 | 0.03 | 74 | 1015.0 |
| 20260904014021 | 83 | 0 | 0.0 | 0.0 | 0.00 | 0.03 | 0.03 | 74 | 1014.9 |
| 20260904013524 | 83 | 0 | 0.0 | 0.0 | 0.00 | 0.03 | 0.03 | 74 | 1014.8 |
| 20260904013040 | 83 | 0 | 0.0 | 0.0 | 0.00 | 0.03 | 0.03 | 74 | 1014.8 |
| 20260904012517 | 84 | 0 | 0.0 | 0.0 | 0.00 | 0.03 | 0.03 | 74 | 1014.7 |
| 20260904012020 | 84 | 0 | 0.0 | 0.0 | 0.00 | 0.03 | 0.03 | 74 | 1014.6 |
| 20260904011547 | 84 | 0 | 0.0 | 0.0 | 0.00 | 0.03 | 0.03 | 74 | 1014.6 |
| 20260904011024 | 84 | 0 | 0.0 | 0.0 | 0.00 | 0.03 | 0.03 | 74 | 1014.8 |
| 20260904010520 | 84 | 0 | 0.0 | 0.0 | 0.00 | 0.03 | 0.03 | 73 | 1014.7 |
| 20260904010043 | 85 | 0 | 0.0 | 0.0 | 0.00 | 0.03 | 0.03 | 73 | 1014.6 |
| 20260904005520 | 85 | 0 | 0.0 | 0.0 | 0.00 | 0.03 | 0.03 | 73 | 1014.6 |
| 20260904005020 | 85 | 0 | 0.0 | 0.0 | 0.00 | 0.03 | 0.03 | 72 | 1014.4 |
| 20260904004544 | 86 | 0 | 0.0 | 0.0 | 0.00 | 0.03 | 0.03 | 72 | 1014.4 |
| 20260904004024 | 86 | 0 | 0.0 | 0.0 | 0.00 | 0.03 | 0.03 | 71 | 1014.2 |
| 20260904003522 | 86 | 0 | 0.0 | 0.0 | 0.00 | 0.03 | 0.03 | 71 | 1014.2 |
| 20260904003050 | 87 | 0 | 0.0 | 0.0 | 0.00 | 0.03 | 0.03 | 70 | 1014.1 |
| 20260904002520 | 87 | 0 | 0.0 | 0.0 | 0.00 | 0.03 | 0.03 | 70 | 1014.3 |
| 20260904002017 | 88 | 0 | 0.0 | 0.0 | 0.00 | 0.03 | 0.03 | 69 | 1014.3 |
| 20260904001541 | 88 | 0 | 0.0 | 0.0 | 0.00 | 0.03 | 0.03 | 68 | 1014.3 |
| 20260904001020 | 88 | 0 | 0.0 | 0.0 | 0.00 | 0.03 | 0.03 | 67 | 1014.3 |
| 20260904000525 | 89 | 0 | 0.0 | 0.0 | 0.00 | 0.03 | 0.03 | 67 | 1014.5 |
| 20260904000044 | 89 | 0 | 0.0 | 0.9 | 0.00 | 0.03 | 0.03 | 67 | 1014.5 |
| 20260903235524 | 89 | 0 | 0.0 | 0.9 | 0.00 | 0.03 | 0.03 | 67 | 1014.4 |
| 20260903235021 | 89 | 0 | 0.0 | 0.0 | 0.00 | 0.03 | 0.03 | 65 | 1014.4 |
| 20260903234541 | 89 | 0 | 0.0 | 0.0 | 0.00 | 0.03 | 0.03 | 64 | 1014.4 |
| 20260903234019 | 90 | 0 | 0.0 | 0.0 | 0.00 | 0.03 | 0.03 | 63 | 1014.4 |
| 20260903233524 | 90 | 0 | 0.0 | 0.0 | 0.00 | 0.03 | 0.03 | 64 | 1014.5 |
| 20260903233041 | 90 | 0 | 0.0 | 0.0 | 0.00 | 0.03 | 0.03 | 63 | 1014.6 |
| 20260903232522 | 89 | 0 | 0.0 | 0.9 | 0.00 | 0.03 | 0.03 | 63 | 1014.5 |
| 20260903232023 | 89 | 0 | 0.0 | 0.9 | 0.00 | 0.03 | 0.03 | 63 | 1014.4 |
| 20260903231544 | 89 | 0 | 0.0 | 0.9 | 0.00 | 0.03 | 0.03 | 63 | 1014.6 |
| 20260903231023 | 89 | 0 | 0.0 | 0.9 | 0.00 | 0.03 | 0.03 | 63 | 1014.5 |
| 20260903230523 | 89 | 0 | 0.0 | 0.9 | 0.00 | 0.03 | 0.03 | 64 | 1014.5 |
| 20260903230053 | 88 | 0 | 0.0 | 0.9 | 0.00 | 0.03 | 0.03 | 65 | 1014.5 |
| 20260903225519 | 88 | 0 | 0.0 | 0.9 | 0.00 | 0.03 | 0.03 | 65 | 1014.4 |
| 20260903225020 | 88 | 0 | 0.0 | 0.9 | 0.00 | 0.03 | 0.03 | 67 | 1014.4 |
| 20260903224540 | 87 | 0 | 0.0 | 1.7 | 0.00 | 0.03 | 0.03 | 67 | 1014.4 |
| 20260903224020 | 87 | 0 | 0.0 | 1.7 | 0.00 | 0.03 | 0.03 | 66 | 1014.3 |
| 20260903223520 | 87 | 0 | 0.0 | 3.5 | 0.00 | 0.03 | 0.03 | 67 | 1014.3 |
| 20260903223044 | 87 | 0 | 0.0 | 3.5 | 0.00 | 0.03 | 0.03 | 67 | 1014.2 |
| 20260903222518 | 87 | 0 | 0.0 | 1.7 | 0.00 | 0.03 | 0.03 | 67 | 1014.3 |
| 20260903222021 | 87 | 275 | 0.0 | 1.7 | 0.00 | 0.03 | 0.03 | 68 | 1014.2 |
| 20260903221543 | 87 | 0 | 0.0 | 2.6 | 0.00 | 0.03 | 0.03 | 68 | 1014.2 |
| 20260903221022 | 87 | 334 | 0.0 | 2.6 | 0.00 | 0.03 | 0.03 | 69 | 1014.2 |
| 20260903220524 | 86 | 329 | 0.0 | 1.7 | 0.00 | 0.03 | 0.03 | 69 | 1014.2 |
| 20260903220042 | 86 | 0 | 0.0 | 3.5 | 0.00 | 0.03 | 0.03 | 68 | 1014.3 |
| 20260903215521 | 86 | 0 | 0.0 | 3.5 | 0.00 | 0.03 | 0.03 | 68 | 1014.3 |
| 20260903215020 | 86 | 0 | 0.0 | 3.5 | 0.00 | 0.03 | 0.03 | 67 | 1014.2 |
| 20260903214546 | 86 | 0 | 0.0 | 4.3 | 0.00 | 0.03 | 0.03 | 68 | 1014.2 |
| 20260903214027 | 87 | 325 | 0.9 | 4.3 | 0.00 | 0.03 | 0.03 | 66 | 1014.3 |
| 20260903213522 | 87 | 0 | 0.0 | 4.3 | 0.00 | 0.03 | 0.03 | 65 | 1014.3 |
| 20260903213050 | 88 | 15 | 0.0 | 4.3 | 0.00 | 0.03 | 0.03 | 65 | 1014.3 |
| 20260903212521 | 89 | 293 | 0.9 | 3.5 | 0.00 | 0.03 | 0.03 | 65 | 1014.5 |
| 20260903212025 | 89 | 285 | 0.0 | 2.6 | 0.00 | 0.03 | 0.03 | 66 | 1014.8 |
| 20260903211542 | 89 | 285 | 0.0 | 3.5 | 0.00 | 0.03 | 0.03 | 67 | 1014.8 |
| 20260903211019 | 89 | 0 | 0.0 | 3.5 | 0.00 | 0.03 | 0.03 | 65 | 1014.8 |
| 20260903210518 | 89 | 302 | 0.0 | 3.5 | 0.01 | 0.03 | 0.03 | 67 | 1014.8 |
| 20260903210040 | 89 | 0 | 0.0 | 4.3 | 0.03 | 0.03 | 0.03 | 66 | 1014.7 |
| 20260903205524 | 89 | 270 | 0.9 | 4.3 | 0.03 | 0.03 | 0.03 | 66 | 1014.6 |
| 20260903205020 | 89 | 34 | 0.0 | 1.7 | 0.03 | 0.03 | 0.03 | 67 | 1014.7 |
| 20260903204544 | 89 | 0 | 0.0 | 1.7 | 0.03 | 0.03 | 0.03 | 67 | 1014.4 |
| 20260903204022 | 89 | 0 | 0.0 | 3.5 | 0.03 | 0.03 | 0.03 | 71 | 1014.3 |
| 20260903203522 | 89 | 0 | 0.0 | 3.5 | 0.03 | 0.03 | 0.03 | 72 | 1014.5 |
| 20260903203043 | 89 | 0 | 0.0 | 3.5 | 0.03 | 0.03 | 0.03 | 71 | 1014.6 |
| 20260903202520 | 89 | 349 | 0.0 | 3.5 | 0.03 | 0.03 | 0.03 | 70 | 1014.5 |
| 20260903202020 | 91 | 0 | 0.0 | 2.6 | 0.03 | 0.03 | 0.03 | 72 | 1014.7 |
| 20260903201542 | 92 | 0 | 0.0 | 2.6 | 0.03 | 0.03 | 0.03 | 67 | 1014.2 |